[[{"header":{"parameterUnit":"m.s-1","parameterCategory":1,"la1":30.2991,"la2":30.254,"lo1":-89.0895,"lo2":-89.0444,"dy":0.0017,"dx":0.0017,"nx":28,"ny":28,"refTime":"2025-08-18T09:00:00:Z","depth":0,"parameterNumber":2,"parameterNumberName":"U-component_of_WINDS"},"data":[0,0,0,0,0,0,0,0,0,0,0,0,0,0,0,0,0,0,0,0,0,0,0,0,0,0,0,0,0,0,0,0,0,0,0,0,0,0,0,0,0,0,0,0,0,0,0,0,0,0,0,0,0,0,0,0,0,0,2.2638,2.2639,0,2.2708,2.2708,2.2709,2.268,2.2679,2.2677,2.2675,2.2745,2.2749,2.2752,0,0,0,0,0,0,0,0,0,0,0,0,0,2.2481,2.2484,2.2638,2.2639,2.264,2.2707,2.2708,2.2709,2.2681,2.2678,2.2676,2.2675,2.2744,2.2748,2.2752,0,0,0,0,0,0,0,0,0,0,0,0,0,2.255,2.2485,2.2638,2.2634,2.2634,2.2707,2.2708,2.271,2.2681,2.2678,2.2676,2.2674,2.2743,2.2748,2.2753,2.2834,0,0,2.2768,2.2771,0,0,0,0,0,0,0,0,2.2546,2.2555,2.2634,2.2634,2.2635,2.2683,2.2678,2.2751,2.2682,2.2663,2.2675,2.2672,2.2726,2.2733,2.2751,2.2837,2.284,2.2769,2.2772,2.2774,2.2776,0,0,0,0,0,0,0,2.2541,2.2552,2.2666,2.2635,2.2635,2.2628,2.2635,2.2692,2.2708,2.2665,2.2663,2.2671,2.2726,2.2746,2.2752,2.2841,2.2769,2.2773,2.2776,2.2778,2.2998,2.3,0,0,0,0,0,0,2.2536,2.2549,2.2663,2.2668,2.2583,2.2633,2.2641,2.267,2.2707,2.271,2.2673,2.267,2.2739,2.2747,2.2755,2.2852,2.2774,2.2779,2.2782,2.2995,2.2998,2.3001,0,0,0,0,0,0,2.2533,2.2547,2.2661,2.2608,2.2622,2.2639,2.2671,2.2672,2.2692,2.2714,2.2716,2.2691,2.2737,2.2748,2.2815,2.2854,2.2781,2.2786,2.2992,2.2996,2.3,2.3047,0,0,0,0,0,0,2.2529,2.2546,2.2577,2.2609,2.2625,2.2719,2.2674,2.2676,2.2701,2.2697,2.2731,2.2734,2.2736,2.2807,2.282,2.286,2.279,2.2988,2.2993,2.2998,2.3042,2.3053,2.3062,0,0,0,0,0,2.2523,2.2587,2.2579,2.2593,2.2664,2.2722,2.2731,2.2732,2.2705,2.2736,2.275,2.2733,2.2848,2.2814,2.2828,2.287,2.2986,2.2992,2.2998,2.3038,2.3051,2.3061,0,0,0,0,0,0,2.2559,2.2591,2.2582,2.2658,2.2688,2.2717,2.2756,2.2745,2.2783,2.2777,2.2777,2.2785,2.2854,2.2869,2.2831,2.2951,2.2913,2.2922,2.2938,2.2951,2.296,2.2954,2.2794,0,0,0,0,0,2.2576,2.2621,2.2646,2.2711,2.2727,2.2739,2.2764,2.2763,2.2793,2.2805,2.2824,2.2853,2.2896,2.2924,2.2965,2.3045,2.3052,2.3081,2.3091,2.3098,2.3106,2.3149,2.3162,2.3022,2.3022,2.3021,0,0,2.2611,2.2634,2.2663,2.2719,2.2742,2.2788,2.275,2.28,2.2834,2.2813,2.2877,2.2892,2.2925,2.2999,2.3032,2.3014,2.3147,2.3106,2.3112,2.3116,2.3157,2.317,2.3182,2.3026,2.3025,2.3024,0,0,2.2699,2.2721,2.2778,2.2801,2.2836,2.2844,2.2858,2.2889,2.2898,2.2963,2.2948,2.2989,2.3062,2.3087,2.3109,2.3207,2.3192,2.322,2.327,2.3312,2.3323,2.3333,2.3367,2.338,2.3228,2.3228,2.3228,0,2.2738,2.2807,2.2808,2.286,2.2885,2.2869,2.2926,2.2949,2.2995,2.3013,2.2991,2.3084,2.3105,2.3184,2.3208,2.3227,2.3242,2.3216,2.3321,2.3331,2.334,2.3373,2.3386,2.3231,2.3231,2.323,2.323,0,2.2854,2.2902,2.2943,2.2989,2.3019,2.3073,2.3082,2.3113,2.3109,2.3119,2.3185,2.3211,2.3256,2.3275,2.3271,2.3354,2.3341,2.3321,2.3282,2.3357,2.3388,2.34,2.3235,2.3234,2.3233,2.3233,0,0,2.2965,2.3011,2.3026,2.3046,2.3084,2.3121,2.3175,2.322,2.3246,2.3279,2.3323,2.3387,2.3368,2.3393,2.3393,2.343,2.3506,2.3405,2.3406,2.3422,2.3598,2.3612,2.3627,2.3497,2.35,2.3501,2.3595,0,2.3055,2.3149,2.3152,2.3238,2.3282,2.3268,2.3315,2.3343,2.3354,2.3393,2.3406,2.3451,2.3423,2.3438,2.3475,2.3489,2.3541,2.3482,2.3538,2.354,2.3529,2.3643,2.3658,2.3745,2.3607,2.3609,2.361,0,2.3172,2.3209,2.33,2.3331,2.335,2.3392,2.3433,2.3471,2.3503,2.3509,2.3537,2.3532,2.3586,2.3547,2.3622,2.3582,2.3605,2.3616,2.3619,2.3624,2.3579,2.3649,2.3772,2.3785,2.3629,2.3628,2.3626,0,2.3243,2.3316,2.3379,2.3398,2.3436,2.3466,2.3483,2.3513,2.354,2.3576,2.3593,2.3636,2.3659,2.3692,2.3697,2.3668,2.3773,2.3734,2.3778,2.3778,2.38,2.3798,2.3928,2.3817,2.3817,2.3816,2.3816,0,2.3343,2.3399,2.3412,2.3451,2.3513,2.3516,2.3578,2.3593,2.3619,2.3661,2.3651,2.369,2.3696,2.3737,2.3741,2.3803,2.3813,2.3819,2.382,2.382,2.3819,2.3834,2.3828,2.382,2.3819,2.3818,2.3818,0,2.3433,2.3444,2.3512,2.3543,2.3553,2.3597,2.3624,2.3661,2.3672,2.3725,2.3737,2.3754,2.3801,2.381,2.3866,2.387,2.3943,2.3937,2.3932,2.3931,2.3975,2.397,2.4118,2.4137,2.4014,2.4015,2.4016,0,2.3495,2.3538,2.3574,2.3601,2.362,2.3665,2.3692,2.3697,2.3726,2.3766,2.3798,2.3845,2.3882,2.3958,2.3975,2.4018,2.4013,2.4062,2.402,2.4018,2.4013,2.401,2.4014,2.407,2.4071,2.4072,2.4073,0,2.3605,2.3609,2.3649,2.3691,2.3725,2.3758,2.379,2.3813,2.3822,2.3855,2.3904,2.3933,2.399,2.4036,2.4079,2.4097,2.4086,2.4087,2.4099,2.4099,2.4093,2.4096,2.3953,2.4083,2.4082,2.4081,2.4081,2.408,2.3683,2.372,2.3751,2.3796,2.3821,2.3851,2.3888,2.3903,2.3944,2.3991,2.3992,2.4044,2.4075,2.4132,2.4153,2.4194,2.4178,2.4197,2.4201,2.4205,2.4209,2.4088,2.4202,2.4201,2.4201,2.4201,2.4201,0,2.3791,2.3811,2.3853,2.3897,2.3933,2.3921,2.3956,2.3986,2.4033,2.4063,2.41,2.4156,2.4201,2.4222,2.4266,2.4295,2.4291,2.4306,2.4303,2.4308,2.4221,2.4205,2.4308,2.4308,2.4308,2.4308,2.4308,2.4308,2.3852,2.3914,2.3922,2.3996,2.4015,2.4067,2.4088,2.4115,2.4139,2.4202,2.4239,2.4253,2.4279,2.4325,2.4366,2.4371,2.4387,2.4404,2.4407,2.4325,2.4314,2.4303,2.4289,2.4408,2.4408,2.449,2.4491,2.4492]},{"header":{"parameterUnit":"m.s-1","parameterCategory":1,"la1":30.2991,"la2":30.254,"lo1":-89.0895,"lo2":-89.0444,"dy":0.0017,"dx":0.0017,"nx":28,"ny":28,"refTime":"2025-08-18T09:00:00:Z","depth":0,"parameterNumber":3,"parameterNumberName":"V-component_of_WINDS"},"data":[0,0,0,0,0,0,0,0,0,0,0,0,0,0,0,0,0,0,0,0,0,0,0,0,0,0,0,0,0,0,0,0,0,0,0,0,0,0,0,0,0,0,0,0,0,0,0,0,0,0,0,0,0,0,0,0,0,0,-1.5021,-1.5021,0,-1.4984,-1.4983,-1.4983,-1.4952,-1.4952,-1.4952,-1.4952,-1.4912,-1.4911,-1.491,0,0,0,0,0,0,0,0,0,0,0,0,0,-1.5065,-1.5064,-1.5021,-1.5021,-1.502,-1.4984,-1.4983,-1.4983,-1.4953,-1.4952,-1.4952,-1.4951,-1.4912,-1.4911,-1.491,0,0,0,0,0,0,0,0,0,0,0,0,0,-1.5039,-1.5064,-1.5021,-1.5001,-1.4999,-1.4984,-1.4983,-1.4983,-1.4953,-1.4952,-1.4952,-1.4951,-1.4912,-1.4911,-1.491,-1.4912,0,0,-1.4907,-1.4906,0,0,0,0,0,0,0,0,-1.504,-1.5037,-1.5004,-1.5002,-1.5,-1.4972,-1.4984,-1.4959,-1.4953,-1.497,-1.4952,-1.4951,-1.4932,-1.4929,-1.4923,-1.4911,-1.4909,-1.4907,-1.4906,-1.4905,-1.4905,0,0,0,0,0,0,0,-1.5042,-1.5038,-1.5006,-1.5004,-1.5001,-1.4993,-1.4989,-1.4979,-1.4954,-1.4968,-1.4966,-1.4962,-1.4931,-1.4925,-1.4922,-1.4908,-1.4907,-1.4906,-1.4905,-1.4904,-1.4895,-1.4895,0,0,0,0,0,0,-1.5047,-1.504,-1.5008,-1.5005,-1.5019,-1.4993,-1.4988,-1.4982,-1.4954,-1.495,-1.4963,-1.4961,-1.4927,-1.4924,-1.4921,-1.4921,-1.4905,-1.4904,-1.4904,-1.4894,-1.4895,-1.4895,0,0,0,0,0,0,-1.5048,-1.5045,-1.5009,-1.5022,-1.5017,-1.4992,-1.4986,-1.4981,-1.4975,-1.495,-1.4945,-1.4961,-1.4926,-1.4922,-1.4915,-1.4919,-1.4904,-1.4903,-1.4894,-1.4894,-1.4895,-1.4921,0,0,0,0,0,0,-1.505,-1.5045,-1.5046,-1.5022,-1.5016,-1.5004,-1.4986,-1.4981,-1.4973,-1.497,-1.4947,-1.4943,-1.4926,-1.4917,-1.4913,-1.4917,-1.4902,-1.4893,-1.4894,-1.4895,-1.492,-1.4923,-1.4925,0,0,0,0,0,-1.5051,-1.5055,-1.5046,-1.5042,-1.5017,-1.5004,-1.5001,-1.4982,-1.4974,-1.4974,-1.4958,-1.4943,-1.4919,-1.4916,-1.4912,-1.4916,-1.4893,-1.4894,-1.4895,-1.4919,-1.4922,-1.4925,0,0,0,0,0,0,-1.5079,-1.5051,-1.5041,-1.5038,-1.5024,-1.4999,-1.4999,-1.4986,-1.4974,-1.4972,-1.4948,-1.4943,-1.4938,-1.4926,-1.4923,-1.4916,-1.4904,-1.4904,-1.4924,-1.4927,-1.493,-1.4932,-1.4901,0,0,0,0,0,-1.5085,-1.5077,-1.5053,-1.5052,-1.5046,-1.5024,-1.5018,-1.5004,-1.4988,-1.4982,-1.4966,-1.4951,-1.494,-1.4933,-1.4921,-1.4919,-1.4913,-1.4919,-1.4922,-1.4924,-1.4924,-1.4921,-1.4924,-1.4898,-1.4898,-1.4898,0,0,-1.5097,-1.5081,-1.5077,-1.5057,-1.5045,-1.5037,-1.5019,-1.5012,-1.5005,-1.4981,-1.4972,-1.496,-1.4942,-1.4936,-1.4933,-1.4926,-1.493,-1.4925,-1.4928,-1.4926,-1.4923,-1.4925,-1.4927,-1.4899,-1.4899,-1.4899,0,0,-1.5114,-1.5101,-1.5098,-1.5086,-1.5068,-1.5053,-1.5053,-1.5031,-1.5021,-1.5013,-1.4994,-1.4986,-1.4968,-1.4956,-1.4947,-1.496,-1.4945,-1.4956,-1.497,-1.4967,-1.4969,-1.4971,-1.4975,-1.4976,-1.4957,-1.4957,-1.4957,0,-1.513,-1.5118,-1.5099,-1.5092,-1.5084,-1.5062,-1.5059,-1.5048,-1.5027,-1.5021,-1.5014,-1.4991,-1.4977,-1.4968,-1.4971,-1.4965,-1.4963,-1.4958,-1.4971,-1.4972,-1.4973,-1.4976,-1.4978,-1.4958,-1.4958,-1.4958,-1.4958,0,-1.5139,-1.5131,-1.5131,-1.5111,-1.5103,-1.5098,-1.5077,-1.5071,-1.5059,-1.5045,-1.5036,-1.5019,-1.5003,-1.5,-1.4988,-1.4989,-1.4986,-1.4975,-1.4962,-1.4977,-1.498,-1.4981,-1.496,-1.496,-1.496,-1.4959,0,0,-1.5171,-1.5141,-1.5142,-1.5132,-1.511,-1.5103,-1.5098,-1.5083,-1.5078,-1.5064,-1.5058,-1.5043,-1.5033,-1.5023,-1.5009,-1.5007,-1.5017,-1.4997,-1.4996,-1.5,-1.5017,-1.5025,-1.5026,-1.5008,-1.5009,-1.5009,-1.5018,0,-1.5184,-1.5172,-1.5155,-1.5149,-1.5141,-1.512,-1.5115,-1.5101,-1.5088,-1.5079,-1.5064,-1.5054,-1.5042,-1.5036,-1.5033,-1.5017,-1.502,-1.5016,-1.5002,-1.5001,-1.5006,-1.5028,-1.5036,-1.5045,-1.5019,-1.5019,-1.502,0,-1.5197,-1.5185,-1.5178,-1.5157,-1.5152,-1.5148,-1.5133,-1.5125,-1.5108,-1.5099,-1.5088,-1.5073,-1.5065,-1.5055,-1.5043,-1.5041,-1.5034,-1.5025,-1.5025,-1.5022,-1.5011,-1.5024,-1.5048,-1.5049,-1.5021,-1.5021,-1.5021,0,-1.522,-1.5202,-1.5195,-1.5188,-1.5163,-1.5161,-1.515,-1.5133,-1.5125,-1.5112,-1.5107,-1.5093,-1.5085,-1.5074,-1.5056,-1.505,-1.5046,-1.5034,-1.5037,-1.5038,-1.5036,-1.5037,-1.5059,-1.5034,-1.5034,-1.5034,-1.5034,0,-1.5235,-1.5232,-1.5205,-1.5201,-1.5197,-1.5176,-1.5172,-1.516,-1.5145,-1.5138,-1.5119,-1.5113,-1.5089,-1.508,-1.5065,-1.5058,-1.5054,-1.5046,-1.5042,-1.5047,-1.5048,-1.5042,-1.504,-1.5034,-1.5034,-1.5034,-1.5034,0,-1.526,-1.5242,-1.5234,-1.5211,-1.5205,-1.5203,-1.5183,-1.5178,-1.5164,-1.5155,-1.5152,-1.513,-1.5118,-1.5099,-1.5081,-1.5072,-1.5066,-1.506,-1.5072,-1.5069,-1.5073,-1.5073,-1.5091,-1.5092,-1.5068,-1.5068,-1.5068,0,-1.527,-1.5267,-1.5244,-1.5238,-1.5229,-1.5219,-1.5211,-1.5192,-1.5184,-1.5165,-1.5162,-1.5149,-1.5137,-1.5119,-1.5101,-1.5087,-1.508,-1.5087,-1.5078,-1.5083,-1.5079,-1.5079,-1.5078,-1.5089,-1.509,-1.509,-1.509,0,-1.529,-1.5282,-1.5271,-1.5258,-1.5249,-1.5237,-1.5224,-1.522,-1.5197,-1.519,-1.5177,-1.5168,-1.515,-1.5137,-1.5121,-1.511,-1.5096,-1.5094,-1.5093,-1.5098,-1.5105,-1.51,-1.5077,-1.5093,-1.5093,-1.5092,-1.5092,-1.5092,-1.5307,-1.5303,-1.5287,-1.5275,-1.5264,-1.5253,-1.5247,-1.5232,-1.5222,-1.5206,-1.5195,-1.5183,-1.5166,-1.5143,-1.5133,-1.5123,-1.5117,-1.5117,-1.5117,-1.5117,-1.5119,-1.5107,-1.512,-1.512,-1.512,-1.512,-1.512,0,-1.5326,-1.5314,-1.5304,-1.5287,-1.5278,-1.5267,-1.5252,-1.5245,-1.5235,-1.5221,-1.521,-1.5196,-1.5183,-1.5164,-1.515,-1.5146,-1.5139,-1.5142,-1.5142,-1.5139,-1.5125,-1.5126,-1.5148,-1.5148,-1.5148,-1.5148,-1.5148,-1.5148,-1.5334,-1.5327,-1.5316,-1.5303,-1.5291,-1.5279,-1.5272,-1.5261,-1.525,-1.5235,-1.5224,-1.5212,-1.5196,-1.5181,-1.5168,-1.5163,-1.5158,-1.5164,-1.5156,-1.5143,-1.514,-1.5138,-1.5139,-1.5163,-1.5163,-1.5171,-1.5171,-1.5171]}]]